Time,TemperatureF,DewpointF,PressureIn,WindDirection,WindDirectionDegrees,WindSpeedMPH,WindSpeedGustMPH,Humidity,HourlyPrecipIn,Conditions,Clouds,dailyrainin,SolarRadiationWatts/m^2,SoftwareType,DateUTC
2013-07-10 00:01:00,65.3,48.5,30.02,WNW,295,5.8,5.8,55,0.00,,---,0.00,0.00,VWS V14.01,2013-07-10 07:01:00,
2013-07-10 00:06:00,65.3,48.6,30.02,WNW,293,4.9,5.8,55,0.00,,---,0.00,0.00,VWS V14.01,2013-07-10 07:06:00,
2013-07-10 00:11:00,65.1,48.7,30.02,WNW,301,4.0,4.0,55,0.00,,---,0.00,0.00,VWS V14.01,2013-07-10 07:11:00,
2013-07-10 00:16:00,64.9,48.4,30.02,WNW,291,7.8,7.8,55,0.00,,---,0.00,0.00,VWS V14.01,2013-07-10 07:16:00,
2013-07-10 00:21:00,64.9,48.3,30.02,WNW,282,9.6,9.6,55,0.00,,---,0.00,0.00,VWS V14.01,2013-07-10 07:21:00,
2013-07-10 00:26:00,64.8,48.4,30.02,West,275,5.6,7.8,55,0.00,,---,0.00,0.00,VWS V14.01,2013-07-10 07:26:00,
2013-07-10 00:47:00,64.2,48.5,30.01,West,278,6.5,6.5,57,0.00,,---,0.00,0.23,VWS V14.01,2013-07-10 07:47:00,
2013-07-10 02:02:00,62.2,48.9,30.03,NW,306,1.3,1.3,62,0.00,,---,0.00,0.00,VWS V14.01,2013-07-10 09:02:00,
2013-07-10 02:07:00,62.2,49.0,30.02,West,269,3.8,3.8,62,0.00,,---,0.00,0.00,VWS V14.01,2013-07-10 09:07:00,
2013-07-10 02:12:00,62.1,49.0,30.02,WNW,290,3.4,3.4,62,0.00,,---,0.00,0.92,VWS V14.01,2013-07-10 09:12:00,
2013-07-10 02:17:00,62.1,49.1,30.02,WNW,286,2.7,2.7,62,0.00,,---,0.00,0.00,VWS V14.01,2013-07-10 09:17:00,
2013-07-10 02:22:00,62.1,49.2,30.02,West,259,2.2,3.4,63,0.00,,---,0.00,2.98,VWS V14.01,2013-07-10 09:22:00,
2013-07-10 02:27:00,61.9,49.1,30.02,West,275,2.7,3.6,63,0.00,,---,0.00,0.00,VWS V14.01,2013-07-10 09:27:00,
2013-07-10 02:32:00,61.9,49.2,30.02,NW,317,1.8,2.0,63,0.00,,---,0.00,2.44,VWS V14.01,2013-07-10 09:32:00,
2013-07-10 02:37:00,61.9,49.2,30.02,West,261,2.5,2.5,63,0.00,,---,0.00,0.92,VWS V14.01,2013-07-10 09:37:00,
2013-07-10 02:42:00,61.9,49.3,30.02,WNW,294,2.5,3.6,63,0.00,,---,0.00,0.00,VWS V14.01,2013-07-10 09:42:00,
2013-07-10 02:47:00,61.9,49.2,30.02,West,270,3.1,3.1,63,0.00,,---,0.00,0.00,VWS V14.01,2013-07-10 09:47:00,
2013-07-10 02:52:00,61.9,49.2,30.02,West,263,2.7,3.8,63,0.00,,---,0.00,0.00,VWS V14.01,2013-07-10 09:52:00,
2013-07-10 02:57:00,61.9,49.3,30.02,WSW,258,1.8,2.5,63,0.00,,---,0.00,0.00,VWS V14.01,2013-07-10 09:57:00,
2013-07-10 03:02:00,61.7,49.2,30.02,West,263,2.5,2.7,64,0.00,,---,0.00,0.00,VWS V14.01,2013-07-10 10:02:00,
2013-07-10 03:07:00,61.7,49.3,30.02,West,263,1.8,2.2,64,0.00,,---,0.00,0.00,VWS V14.01,2013-07-10 10:07:00,
2013-07-10 03:12:00,61.5,49.2,30.02,West,273,2.5,3.1,64,0.00,,---,0.00,0.00,VWS V14.01,2013-07-10 10:12:00,
2013-07-10 03:17:00,61.5,49.2,30.02,WSW,256,2.5,2.5,64,0.00,,---,0.00,1.07,VWS V14.01,2013-07-10 10:17:00,
2013-07-10 03:22:00,61.5,49.2,30.02,West,268,3.4,4.0,64,0.00,,---,0.00,4.35,VWS V14.01,2013-07-10 10:22:00,
2013-07-10 03:28:00,61.5,49.2,30.02,WSW,256,2.5,2.7,64,0.00,,---,0.00,0.76,VWS V14.01,2013-07-10 10:28:00,
2013-07-10 03:33:00,61.5,49.2,30.02,West,266,1.1,1.8,64,0.00,,---,0.00,1.91,VWS V14.01,2013-07-10 10:33:00,
2013-07-10 03:38:00,61.3,49.1,30.02,WNW,298,1.8,1.8,64,0.00,,---,0.00,3.28,VWS V14.01,2013-07-10 10:38:00,
2013-07-10 03:43:00,61.3,49.2,30.02,West,263,2.9,3.1,64,0.00,,---,0.00,0.00,VWS V14.01,2013-07-10 10:43:00,
2013-07-10 03:48:00,61.2,49.2,30.02,West,273,2.5,2.5,65,0.00,,---,0.00,0.00,VWS V14.01,2013-07-10 10:48:00,
2013-07-10 03:53:00,61.2,49.4,30.02,SW,234,1.1,1.6,65,0.00,,---,0.00,0.00,VWS V14.01,2013-07-10 10:53:00,
2013-07-10 03:58:00,61.0,49.2,30.02,West,271,2.0,3.1,65,0.00,,---,0.00,0.00,VWS V14.01,2013-07-10 10:58:00,
2013-07-10 04:03:00,61.0,49.2,30.02,WSW,249,3.8,3.8,65,0.00,,---,0.00,0.00,VWS V14.01,2013-07-10 11:03:00,
2013-07-10 04:08:00,61.0,49.1,30.02,WNW,286,2.0,3.8,65,0.00,,---,0.00,3.36,VWS V14.01,2013-07-10 11:08:00,
2013-07-10 04:13:00,61.0,49.1,30.02,NW,309,2.9,2.9,65,0.00,,---,0.00,0.00,VWS V14.01,2013-07-10 11:13:00,
2013-07-10 04:18:00,61.0,49.1,30.02,NW,311,2.5,2.5,65,0.00,,---,0.00,0.76,VWS V14.01,2013-07-10 11:18:00,
2013-07-10 04:23:00,61.0,49.2,30.02,NNW,336,1.1,2.0,65,0.00,,---,0.00,0.00,VWS V14.01,2013-07-10 11:23:00,
2013-07-10 04:28:00,61.0,49.3,30.02,ESE,123,1.1,1.1,66,0.00,,---,0.00,0.00,VWS V14.01,2013-07-10 11:28:00,
2013-07-10 04:33:00,60.6,50.4,30.02,SE,125,3.8,3.8,69,0.00,,---,0.00,0.84,VWS V14.01,2013-07-10 11:33:00,
2013-07-10 04:38:00,59.7,50.7,30.03,ESE,103,4.3,4.3,72,0.00,,---,0.00,4.04,VWS V14.01,2013-07-10 11:38:00,
2013-07-10 04:43:00,59.0,50.8,30.03,ESE,107,5.8,5.8,74,0.00,,---,0.00,0.00,VWS V14.01,2013-07-10 11:43:00,
2013-07-10 04:48:00,58.6,51.0,30.03,ESE,119,4.9,4.9,76,0.00,,---,0.00,0.00,VWS V14.01,2013-07-10 11:48:00,
2013-07-10 05:31:00,56.8,51.4,30.02,SE,127,8.5,8.5,82,0.00,,---,0.00,1.45,VWS V14.01,2013-07-10 12:31:00,
2013-07-10 05:36:00,56.8,51.5,30.03,ESE,122,1.6,4.7,82,0.00,,---,0.00,9.46,VWS V14.01,2013-07-10 12:36:00,
2013-07-10 05:41:00,56.8,51.5,30.03,SSE,162,1.1,1.3,82,0.00,,---,0.00,7.63,VWS V14.01,2013-07-10 12:41:00,
2013-07-10 05:46:00,56.8,51.5,30.03,SE,131,4.5,4.5,82,0.00,,---,0.00,7.10,VWS V14.01,2013-07-10 12:46:00,
2013-07-10 05:51:00,56.7,51.4,30.03,SE,128,2.0,2.0,82,0.00,,---,0.00,15.26,VWS V14.01,2013-07-10 12:51:00,
2013-07-10 05:56:00,56.7,51.4,30.03,SE,146,2.7,4.9,82,0.00,,---,0.00,22.51,VWS V14.01,2013-07-10 12:56:00,
2013-07-10 06:01:00,56.7,51.4,30.03,East,97,3.8,5.8,82,0.00,,---,0.00,33.27,VWS V14.01,2013-07-10 13:01:00,
2013-07-10 06:06:00,56.7,51.4,30.03,ESE,106,1.6,5.4,82,0.00,,---,0.00,32.97,VWS V14.01,2013-07-10 13:06:00,
2013-07-10 06:11:00,56.5,51.1,30.03,East,100,8.5,8.5,82,0.00,,---,0.00,44.95,VWS V14.01,2013-07-10 13:11:00,
2013-07-10 06:16:00,56.3,51.1,30.03,ESE,108,5.8,5.8,83,0.00,,---,0.00,48.38,VWS V14.01,2013-07-10 13:16:00,
2013-07-10 06:21:00,56.5,51.2,30.03,East,93,6.9,6.9,82,0.00,,---,0.00,47.08,VWS V14.01,2013-07-10 13:21:00,
2013-07-10 06:26:00,56.3,50.9,30.03,ESE,102,5.4,6.9,82,0.00,,---,0.00,44.72,VWS V14.01,2013-07-10 13:26:00,
2013-07-10 06:31:00,56.3,51.0,30.03,SSE,151,1.3,5.1,82,0.00,,---,0.00,57.08,VWS V14.01,2013-07-10 13:31:00,
2013-07-10 06:36:00,56.3,50.8,30.03,ESE,103,4.5,6.5,82,0.00,,---,0.00,69.67,VWS V14.01,2013-07-10 13:36:00,
2013-07-10 06:41:00,56.5,50.8,30.03,SE,127,4.7,4.7,81,0.00,,---,0.00,78.68,VWS V14.01,2013-07-10 13:41:00,
2013-07-10 06:46:00,56.5,50.8,30.03,SSE,157,3.4,6.0,81,0.00,,---,0.00,74.02,VWS V14.01,2013-07-10 13:46:00,
2013-07-10 06:51:00,56.5,50.9,30.03,East,97,2.9,2.9,81,0.00,,---,0.00,79.59,VWS V14.01,2013-07-10 13:51:00,
2013-07-10 06:56:00,56.1,50.1,30.03,ESE,104,9.8,9.8,80,0.00,,---,0.00,85.16,VWS V14.01,2013-07-10 13:56:00,
2013-07-10 07:01:00,55.9,50.1,30.03,ESE,111,5.6,7.6,81,0.00,,---,0.00,98.06,VWS V14.01,2013-07-10 14:01:00,
2013-07-10 07:06:00,55.8,49.7,30.03,SE,129,6.0,6.0,80,0.00,,---,0.00,107.22,VWS V14.01,2013-07-10 14:06:00,
2013-07-10 07:11:00,55.8,49.8,30.03,SE,125,8.5,8.5,80,0.00,,---,0.00,81.20,VWS V14.01,2013-07-10 14:11:00,
2013-07-10 07:16:00,55.6,49.8,30.03,ESE,116,6.5,6.5,81,0.00,,---,0.00,127.59,VWS V14.01,2013-07-10 14:16:00,
2013-07-10 07:21:00,55.8,49.9,30.04,ESE,118,4.7,4.9,81,0.00,,---,0.00,130.04,VWS V14.01,2013-07-10 14:21:00,
2013-07-10 07:26:00,55.9,50.1,30.04,ESE,108,6.0,6.9,81,0.00,,---,0.00,149.04,VWS V14.01,2013-07-10 14:26:00,
2013-07-10 07:31:00,56.1,50.0,30.04,ESE,105,6.0,11.0,80,0.00,,---,0.00,151.33,VWS V14.01,2013-07-10 14:31:00,
2013-07-10 07:36:00,55.8,49.9,30.04,East,100,7.6,7.6,80,0.00,,---,0.00,168.42,VWS V14.01,2013-07-10 14:36:00,
2013-07-10 07:41:00,55.8,50.0,30.04,ESE,112,4.9,7.2,81,0.00,,---,0.00,183.76,VWS V14.01,2013-07-10 14:41:00,
2013-07-10 07:46:00,56.1,50.1,30.04,ESE,111,5.1,5.1,80,0.00,,---,0.00,179.26,VWS V14.01,2013-07-10 14:46:00,
2013-07-10 07:51:00,56.1,50.2,30.05,SSE,164,2.2,6.0,80,0.00,,---,0.00,191.54,VWS V14.01,2013-07-10 14:51:00,
2013-07-10 07:56:00,56.7,50.4,30.05,East,81,7.6,7.6,80,0.00,,---,0.00,194.83,VWS V14.01,2013-07-10 14:56:00,
2013-07-10 08:01:00,56.8,50.2,30.05,SE,131,3.4,7.2,78,0.00,,---,0.00,145.60,VWS V14.01,2013-07-10 15:01:00,
2013-07-10 08:06:00,56.5,50.1,30.05,East,80,5.1,7.4,79,0.00,,---,0.00,100.73,VWS V14.01,2013-07-10 15:06:00,
2013-07-10 08:11:00,56.8,50.3,30.05,East,83,2.9,4.5,79,0.00,,---,0.00,117.75,VWS V14.01,2013-07-10 15:11:00,
2013-07-10 08:16:00,56.5,50.3,30.05,ESE,105,4.7,4.7,80,0.00,,---,0.00,288.31,VWS V14.01,2013-07-10 15:16:00,
2013-07-10 08:21:00,56.5,50.1,30.05,SE,141,4.0,8.1,79,0.00,,---,0.00,251.30,VWS V14.01,2013-07-10 15:21:00,
2013-07-10 08:26:00,56.8,50.3,30.05,ESE,113,4.5,4.5,79,0.00,,---,0.00,374.54,VWS V14.01,2013-07-10 15:26:00,
2013-07-10 08:31:00,56.8,50.1,30.05,ESE,123,3.1,3.1,78,0.00,,---,0.00,240.54,VWS V14.01,2013-07-10 15:31:00,
2013-07-10 08:36:00,56.5,49.7,30.05,ESE,117,7.4,7.4,78,0.00,,---,0.00,392.32,VWS V14.01,2013-07-10 15:36:00,
2013-07-10 08:41:00,56.3,49.8,30.05,ESE,119,6.0,6.0,79,0.00,,---,0.00,363.55,VWS V14.01,2013-07-10 15:41:00,
2013-07-10 08:46:00,57.2,50.7,30.05,East,94,5.1,5.1,79,0.00,,---,0.00,239.24,VWS V14.01,2013-07-10 15:46:00,
2013-07-10 08:51:00,57.2,50.3,30.05,SE,124,3.4,3.4,78,0.00,,---,0.00,200.47,VWS V14.01,2013-07-10 15:51:00,
2013-07-10 08:56:00,57.2,50.3,30.05,SSE,162,4.0,4.0,78,0.00,,---,0.00,205.89,VWS V14.01,2013-07-10 15:56:00,
2013-07-10 09:01:00,57.2,50.3,30.05,SSE,162,4.0,4.0,78,0.00,,---,0.00,205.89,VWS V14.01,2013-07-10 16:01:00,
2013-07-10 09:18:00,57.2,50.3,30.05,SSE,162,4.0,4.0,78,0.00,,---,0.00,205.89,VWS V14.01,2013-07-10 16:18:00,
2013-07-10 09:26:00,57.2,50.3,30.05,SSE,162,4.0,4.0,78,0.00,,---,0.00,205.89,VWS V14.01,2013-07-10 16:26:00,
2013-07-10 10:02:00,57.4,50.2,30.03,East,79,7.2,7.2,77,0.00,,---,0.00,163.00,VWS V14.01,2013-07-10 17:02:00,
2013-07-10 10:07:00,57.2,50.3,30.06,East,81,4.0,4.0,78,0.00,,---,0.00,166.97,VWS V14.01,2013-07-10 17:07:00,
2013-07-10 10:12:00,57.2,50.0,30.06,ESE,103,8.3,9.8,77,0.00,,---,0.00,174.22,VWS V14.01,2013-07-10 17:12:00,
2013-07-10 10:17:00,57.0,50.2,30.06,ESE,109,6.0,7.8,78,0.00,,---,0.00,190.78,VWS V14.01,2013-07-10 17:17:00,
2013-07-10 10:22:00,56.8,50.2,30.06,East,82,5.6,7.4,78,0.00,,---,0.00,190.17,VWS V14.01,2013-07-10 17:22:00,
2013-07-10 10:27:00,57.6,50.5,30.06,ESE,117,5.8,5.8,77,0.00,,---,0.00,196.35,VWS V14.01,2013-07-10 17:27:00,
2013-07-10 10:32:00,57.4,50.5,30.06,ESE,119,4.3,4.3,78,0.00,,---,0.00,174.30,VWS V14.01,2013-07-10 17:32:00,
2013-07-10 10:37:00,57.4,50.0,30.06,ESE,116,7.6,7.6,76,0.00,,---,0.00,186.89,VWS V14.01,2013-07-10 17:37:00,
2013-07-10 10:42:00,57.7,50.3,30.06,ESE,106,4.7,6.0,76,0.00,,---,0.00,173.46,VWS V14.01,2013-07-10 17:42:00,
2013-07-10 10:47:00,57.7,50.1,30.06,SE,134,6.9,9.2,76,0.00,,---,0.00,186.58,VWS V14.01,2013-07-10 17:47:00,
2013-07-10 10:52:00,58.1,50.3,30.06,East,83,3.8,5.8,75,0.00,,---,0.00,201.24,VWS V14.01,2013-07-10 17:52:00,
2013-07-10 10:57:00,57.9,50.2,30.06,ENE,70,4.5,6.0,75,0.00,,---,0.00,202.46,VWS V14.01,2013-07-10 17:57:00,
2013-07-10 11:02:00,57.9,50.3,30.06,East,81,4.9,4.9,76,0.00,,---,0.00,220.54,VWS V14.01,2013-07-10 18:02:00,
2013-07-10 11:07:00,58.5,50.5,30.06,ESE,114,5.6,5.6,75,0.00,,---,0.00,268.24,VWS V14.01,2013-07-10 18:07:00,
2013-07-10 11:12:00,57.9,50.2,30.06,ESE,111,7.8,7.8,76,0.00,,---,0.00,283.81,VWS V14.01,2013-07-10 18:12:00,
2013-07-10 11:16:00,58.3,50.7,30.06,East,88,2.5,3.1,76,0.00,,---,0.00,285.49,VWS V14.01,2013-07-10 18:16:00,
2013-07-10 11:21:00,58.5,50.4,30.06,SE,125,4.9,4.9,75,0.00,,---,0.00,318.30,VWS V14.01,2013-07-10 18:21:00,
2013-07-10 11:26:00,58.8,50.2,30.06,ESE,117,7.4,7.4,73,0.00,,---,0.00,323.34,VWS V14.01,2013-07-10 18:26:00,
2013-07-10 11:31:00,58.6,50.2,30.06,ESE,112,7.4,8.5,73,0.00,,---,0.00,310.06,VWS V14.01,2013-07-10 18:31:00,
2013-07-10 11:36:00,58.8,50.4,30.06,ESE,116,7.8,7.8,74,0.00,,---,0.00,342.11,VWS V14.01,2013-07-10 18:36:00,
2013-07-10 11:41:00,58.5,50.2,30.06,SSE,147,6.0,7.2,74,0.00,,---,0.00,366.22,VWS V14.01,2013-07-10 18:41:00,
2013-07-10 11:46:00,58.8,50.2,30.06,ESE,106,6.5,9.8,73,0.00,,---,0.00,301.28,VWS V14.01,2013-07-10 18:46:00,
2013-07-10 11:51:00,58.6,50.0,30.06,ESE,104,6.9,7.2,73,0.00,,---,0.00,402.70,VWS V14.01,2013-07-10 18:51:00,
2013-07-10 11:56:00,58.5,50.1,30.06,ESE,104,4.9,4.9,74,0.00,,---,0.00,414.68,VWS V14.01,2013-07-10 18:56:00,
2013-07-10 12:01:00,58.1,49.8,30.06,ESE,112,9.2,9.2,74,0.00,,---,0.00,418.35,VWS V14.01,2013-07-10 19:01:00,
2013-07-10 12:06:00,58.5,50.1,30.06,ESE,119,6.5,9.8,74,0.00,,---,0.00,417.20,VWS V14.01,2013-07-10 19:06:00,
2013-07-10 12:11:00,58.5,50.0,30.06,ESE,120,7.4,7.4,73,0.00,,---,0.00,431.93,VWS V14.01,2013-07-10 19:11:00,
2013-07-10 12:16:00,59.0,50.0,30.06,ESE,107,10.5,10.5,72,0.00,,---,0.00,383.55,VWS V14.01,2013-07-10 19:16:00,
2013-07-10 12:21:00,58.5,50.0,30.05,East,82,8.3,8.3,73,0.00,,---,0.00,534.95,VWS V14.01,2013-07-10 19:21:00,
2013-07-10 12:26:00,59.5,50.7,30.05,ESE,107,9.6,9.6,72,0.00,,---,0.00,725.05,VWS V14.01,2013-07-10 19:26:00,
2013-07-10 12:31:00,60.3,50.6,30.05,ESE,104,6.7,6.7,70,0.00,,---,0.00,689.26,VWS V14.01,2013-07-10 19:31:00,
2013-07-10 12:36:00,60.4,50.3,30.05,ESE,103,6.0,7.4,69,0.00,,---,0.00,331.12,VWS V14.01,2013-07-10 19:36:00,
2013-07-10 12:41:00,60.8,50.2,30.05,SE,142,7.8,7.8,68,0.00,,---,0.00,430.25,VWS V14.01,2013-07-10 19:41:00,
2013-07-10 12:46:00,60.1,50.0,30.05,ESE,118,6.0,8.1,69,0.00,,---,0.00,401.02,VWS V14.01,2013-07-10 19:46:00,
2013-07-10 12:51:00,60.3,50.2,30.05,ESE,120,8.1,8.1,69,0.00,,---,0.00,445.13,VWS V14.01,2013-07-10 19:51:00,
2013-07-10 12:56:00,60.1,50.2,30.05,East,101,9.0,9.0,70,0.00,,---,0.00,455.51,VWS V14.01,2013-07-10 19:56:00,
2013-07-10 13:01:00,60.3,50.5,30.05,ESE,116,8.1,8.5,70,0.00,,---,0.00,641.03,VWS V14.01,2013-07-10 20:01:00,
2013-07-10 13:06:00,60.1,50.0,30.05,East,91,11.0,11.0,69,0.00,,---,0.00,512.52,VWS V14.01,2013-07-10 20:06:00,
2013-07-10 13:11:00,61.0,50.3,30.05,NE,56,20.6,20.6,68,0.00,,---,0.00,519.99,VWS V14.01,2013-07-10 20:11:00,
2013-07-10 13:16:00,61.2,50.5,30.05,ENE,61,9.2,9.2,68,0.00,,---,0.00,594.25,VWS V14.01,2013-07-10 20:16:00,
2013-07-10 13:21:00,60.4,50.0,30.05,ESE,109,6.7,7.8,68,0.00,,---,0.00,587.07,VWS V14.01,2013-07-10 20:21:00,
2013-07-10 13:26:00,61.2,50.8,30.05,East,93,5.1,5.1,69,0.00,,---,0.00,625.99,VWS V14.01,2013-07-10 20:26:00,
2013-07-10 13:31:00,61.7,50.3,30.05,SE,126,8.7,8.7,66,0.00,,---,0.00,585.78,VWS V14.01,2013-07-10 20:31:00,
2013-07-10 13:36:00,61.2,50.4,30.05,ESE,103,3.4,6.3,68,0.00,,---,0.00,737.49,VWS V14.01,2013-07-10 20:36:00,
2013-07-10 13:41:00,61.9,50.5,30.05,ESE,120,4.7,5.8,66,0.00,,---,0.00,503.43,VWS V14.01,2013-07-10 20:41:00,
2013-07-10 13:46:00,61.2,49.9,30.05,East,82,6.5,6.5,66,0.00,,---,0.00,586.77,VWS V14.01,2013-07-10 20:46:00,
2013-07-10 13:51:00,61.9,50.0,30.05,East,90,7.2,8.1,65,0.00,,---,0.00,383.09,VWS V14.01,2013-07-10 20:51:00,
2013-07-10 13:56:00,61.2,49.8,30.05,ESE,117,6.5,6.5,66,0.00,,---,0.00,628.28,VWS V14.01,2013-07-10 20:56:00,
2013-07-10 14:01:00,61.9,50.2,30.04,ESE,109,4.7,4.7,65,0.00,,---,0.00,424.22,VWS V14.01,2013-07-10 21:01:00,
2013-07-10 14:06:00,62.6,50.2,30.04,East,93,1.3,1.3,64,0.00,,---,0.00,621.11,VWS V14.01,2013-07-10 21:06:00,
2013-07-10 14:11:00,62.8,50.3,30.04,East,97,6.3,6.3,64,0.00,,---,0.00,603.48,VWS V14.01,2013-07-10 21:11:00,
2013-07-10 14:16:00,62.6,50.0,30.04,East,79,3.4,3.8,63,0.00,,---,0.00,568.68,VWS V14.01,2013-07-10 21:16:00,
2013-07-10 14:21:00,62.8,49.8,30.04,ENE,69,2.0,2.0,62,0.00,,---,0.00,603.48,VWS V14.01,2013-07-10 21:21:00,
2013-07-10 14:26:00,62.6,49.8,30.04,NNE,24,1.6,4.7,63,0.00,,---,0.00,574.33,VWS V14.01,2013-07-10 21:26:00,
2013-07-10 14:31:00,62.2,49.8,30.03,NNW,327,3.1,6.0,64,0.00,,---,0.00,564.87,VWS V14.01,2013-07-10 21:31:00,
2013-07-10 14:36:00,63.7,50.0,30.03,ENE,66,3.8,6.0,61,0.00,,---,0.00,562.65,VWS V14.01,2013-07-10 21:36:00,
2013-07-10 14:41:00,64.0,50.0,30.03,SE,133,5.8,5.8,60,0.00,,---,0.00,566.16,VWS V14.01,2013-07-10 21:41:00,
2013-07-10 14:46:00,63.9,50.1,30.03,ESE,116,7.4,7.4,61,0.00,,---,0.00,557.31,VWS V14.01,2013-07-10 21:46:00,
2013-07-10 14:51:00,63.0,49.6,30.03,East,97,5.4,6.7,62,0.00,,---,0.00,558.53,VWS V14.01,2013-07-10 21:51:00,
2013-07-10 14:56:00,64.2,50.8,30.03,East,92,5.1,5.1,62,0.00,,---,0.00,559.91,VWS V14.01,2013-07-10 21:56:00,
2013-07-10 15:01:00,64.0,50.3,30.03,ESE,118,4.5,4.5,61,0.00,,---,0.00,554.18,VWS V14.01,2013-07-10 22:01:00,
2013-07-10 15:06:00,63.7,50.1,30.02,East,79,6.0,6.0,61,0.00,,---,0.00,554.11,VWS V14.01,2013-07-10 22:06:00,
2013-07-10 15:11:00,63.3,50.0,30.02,ESE,111,7.2,7.4,62,0.00,,---,0.00,546.09,VWS V14.01,2013-07-10 22:11:00,
2013-07-10 15:16:00,63.9,50.8,30.02,East,80,4.0,7.4,62,0.00,,---,0.00,539.99,VWS V14.01,2013-07-10 22:16:00,
2013-07-10 15:21:00,64.6,50.3,30.01,ESE,102,7.2,7.4,60,0.00,,---,0.00,529.91,VWS V14.01,2013-07-10 22:21:00,
2013-07-10 15:26:00,63.9,50.4,30.01,SSE,157,3.6,7.6,62,0.00,,---,0.00,528.62,VWS V14.01,2013-07-10 22:26:00,
2013-07-10 15:31:00,63.9,50.6,30.01,East,86,4.0,7.8,62,0.00,,---,0.00,527.55,VWS V14.01,2013-07-10 22:31:00,
2013-07-10 15:36:00,64.6,50.5,30.01,East,91,6.7,7.8,60,0.00,,---,0.00,519.08,VWS V14.01,2013-07-10 22:36:00,
2013-07-10 15:41:00,64.4,50.7,30.01,SE,134,1.3,7.8,61,0.00,,---,0.00,516.10,VWS V14.01,2013-07-10 22:41:00,
2013-07-10 15:46:00,64.2,50.5,30.01,ESE,103,6.3,7.8,61,0.00,,---,0.00,501.53,VWS V14.01,2013-07-10 22:46:00,
2013-07-10 15:51:00,63.1,50.0,30.01,ESE,116,4.9,8.1,62,0.00,,---,0.00,498.78,VWS V14.01,2013-07-10 22:51:00,
2013-07-10 15:56:00,64.4,50.6,30.00,East,89,5.6,8.1,61,0.00,,---,0.00,491.91,VWS V14.01,2013-07-10 22:56:00,
2013-07-10 16:01:00,64.6,50.7,30.00,ESE,103,2.2,8.1,61,0.00,,---,0.00,484.43,VWS V14.01,2013-07-10 23:01:00,
2013-07-10 16:06:00,65.1,50.4,30.00,East,91,4.5,6.7,59,0.00,,---,0.00,475.66,VWS V14.01,2013-07-10 23:06:00,
2013-07-10 16:11:00,64.0,50.2,30.00,ESE,115,5.4,5.4,61,0.00,,---,0.00,476.95,VWS V14.01,2013-07-10 23:11:00,
2013-07-10 16:16:00,64.8,50.4,30.00,East,101,5.8,5.8,60,0.00,,---,0.00,465.96,VWS V14.01,2013-07-10 23:16:00,
2013-07-10 16:21:00,64.4,50.5,30.00,ESE,106,4.9,4.9,61,0.00,,---,0.00,459.02,VWS V14.01,2013-07-10 23:21:00,
2013-07-10 16:26:00,65.5,51.1,30.00,SE,128,5.4,5.4,60,0.00,,---,0.00,464.29,VWS V14.01,2013-07-10 23:26:00,
2013-07-10 16:31:00,65.5,50.8,29.99,SE,131,7.2,7.2,59,0.00,,---,0.00,444.60,VWS V14.01,2013-07-10 23:31:00,
2013-07-10 16:36:00,64.8,50.6,29.99,ESE,117,5.8,5.8,60,0.00,,---,0.00,437.42,VWS V14.01,2013-07-10 23:36:00,
2013-07-10 16:41:00,65.1,51.1,29.99,East,87,2.2,5.1,60,0.00,,---,0.00,434.75,VWS V14.01,2013-07-10 23:41:00,
2013-07-10 16:46:00,65.8,50.9,29.99,ESE,105,6.9,6.9,58,0.00,,---,0.00,432.62,VWS V14.01,2013-07-10 23:46:00,
2013-07-10 16:51:00,66.6,51.1,29.99,SSE,147,4.7,4.7,58,0.00,,---,0.00,427.88,VWS V14.01,2013-07-10 23:51:00,
2013-07-10 16:56:00,66.4,50.7,29.99,East,97,4.9,4.9,57,0.00,,---,0.00,397.67,VWS V14.01,2013-07-10 23:56:00,
2013-07-10 17:01:00,66.2,50.5,29.98,ESE,110,4.7,5.4,57,0.00,,---,0.00,324.63,VWS V14.01,2013-07-11 00:01:00,
2013-07-10 17:06:00,67.1,51.5,29.98,East,93,2.7,6.0,57,0.00,,---,0.00,413.46,VWS V14.01,2013-07-11 00:06:00,
2013-07-10 17:11:00,67.1,50.9,29.98,ESE,118,4.9,6.3,56,0.00,,---,0.00,297.01,VWS V14.01,2013-07-11 00:11:00,
2013-07-10 17:16:00,66.9,50.6,29.98,ESE,108,4.0,6.3,56,0.00,,---,0.00,265.72,VWS V14.01,2013-07-11 00:16:00,
2013-07-10 17:21:00,66.7,50.8,29.98,East,96,3.8,6.3,56,0.00,,---,0.00,212.38,VWS V14.01,2013-07-11 00:21:00,
2013-07-10 17:26:00,67.1,51.2,29.98,SE,124,4.9,6.9,57,0.00,,---,0.00,288.31,VWS V14.01,2013-07-11 00:26:00,
2013-07-10 17:31:00,67.3,51.3,29.98,ESE,115,13.2,14.3,56,0.00,,---,0.00,204.21,VWS V14.01,2013-07-11 00:31:00,
2013-07-10 17:36:00,67.5,51.5,29.98,South,180,4.7,27.5,57,0.00,,---,0.00,75.70,VWS V14.01,2013-07-11 00:36:00,
2013-07-10 17:41:00,67.1,51.2,29.97,South,183,4.7,27.5,57,0.00,,---,0.00,87.00,VWS V14.01,2013-07-11 00:41:00,
2013-07-10 17:46:00,67.3,51.1,29.97,SE,125,3.1,27.5,56,0.00,,---,0.00,82.04,VWS V14.01,2013-07-11 00:46:00,
2013-07-10 17:51:00,67.5,51.3,29.97,SE,126,5.4,27.5,56,0.00,,---,0.00,118.44,VWS V14.01,2013-07-11 00:51:00,
2013-07-10 17:56:00,67.5,51.3,29.97,SSE,158,4.0,27.5,56,0.00,,---,0.00,84.94,VWS V14.01,2013-07-11 00:56:00,
2013-07-10 18:01:00,67.3,51.2,29.97,SE,141,4.5,4.5,56,0.00,,---,0.00,103.17,VWS V14.01,2013-07-11 01:01:00,
2013-07-10 18:06:00,67.3,51.5,29.97,South,175,3.6,6.3,57,0.00,,---,0.00,321.96,VWS V14.01,2013-07-11 01:06:00,
2013-07-10 18:11:00,68.0,51.7,29.97,SSW,192,7.8,7.8,56,0.00,,---,0.00,218.71,VWS V14.01,2013-07-11 01:11:00,
2013-07-10 18:16:00,67.1,51.4,29.96,South,181,10.1,10.1,57,0.00,,---,0.00,327.61,VWS V14.01,2013-07-11 01:16:00,
2013-07-10 18:21:00,67.6,51.7,29.96,South,183,4.9,4.9,57,0.00,,---,0.00,318.22,VWS V14.01,2013-07-11 01:21:00,
2013-07-10 18:26:00,67.3,51.4,29.96,South,188,6.0,6.0,57,0.00,,---,0.00,285.33,VWS V14.01,2013-07-11 01:26:00,
2013-07-10 18:31:00,67.6,51.3,29.96,South,172,5.6,5.6,56,0.00,,---,0.00,331.65,VWS V14.01,2013-07-11 01:31:00,
2013-07-10 18:36:00,68.2,51.5,29.96,SSW,201,6.0,6.0,55,0.00,,---,0.00,238.10,VWS V14.01,2013-07-11 01:36:00,
2013-07-10 18:41:00,67.8,51.3,29.96,SSW,200,5.8,8.3,56,0.00,,---,0.00,240.08,VWS V14.01,2013-07-11 01:41:00,
2013-07-10 18:46:00,67.8,51.4,29.96,SW,220,6.5,6.5,56,0.00,,---,0.00,258.09,VWS V14.01,2013-07-11 01:46:00,
2013-07-10 18:51:00,67.8,51.4,29.95,South,183,6.0,6.0,56,0.00,,---,0.00,236.72,VWS V14.01,2013-07-11 01:51:00,
2013-07-10 18:56:00,68.0,51.7,29.95,SSE,158,3.4,4.9,56,0.00,,---,0.00,253.13,VWS V14.01,2013-07-11 01:56:00,
2013-07-10 19:01:00,67.8,51.7,29.95,South,188,2.9,2.9,56,0.00,,---,0.00,254.12,VWS V14.01,2013-07-11 02:01:00,
2013-07-10 19:06:00,67.3,51.3,29.95,South,172,4.9,4.9,56,0.00,,---,0.00,240.92,VWS V14.01,2013-07-11 02:06:00,
2013-07-10 19:11:00,66.9,51.3,29.95,South,179,6.0,9.2,57,0.00,,---,0.00,214.13,VWS V14.01,2013-07-11 02:11:00,
2013-07-10 19:16:00,67.3,52.0,29.95,SW,222,4.3,4.3,58,0.00,,---,0.00,95.47,VWS V14.01,2013-07-11 02:16:00,
2013-07-10 19:21:00,67.3,51.8,29.95,South,180,7.6,7.6,58,0.00,,---,0.00,73.11,VWS V14.01,2013-07-11 02:21:00,
2013-07-10 19:26:00,67.1,51.8,29.95,South,182,6.7,6.7,58,0.00,,---,0.00,62.42,VWS V14.01,2013-07-11 02:26:00,
2013-07-10 19:31:00,66.6,51.7,29.95,SSW,209,4.5,4.5,59,0.00,,---,0.00,49.83,VWS V14.01,2013-07-11 02:31:00,
2013-07-10 19:36:00,66.6,51.9,29.95,SW,221,5.8,5.8,59,0.00,,---,0.00,61.66,VWS V14.01,2013-07-11 02:36:00,
2013-07-10 19:41:00,66.4,52.0,29.95,SSE,162,2.9,3.1,60,0.00,,---,0.00,45.18,VWS V14.01,2013-07-11 02:41:00,
2013-07-10 19:46:00,66.6,52.0,29.95,SSW,197,4.3,4.3,59,0.00,,---,0.00,55.56,VWS V14.01,2013-07-11 02:46:00,
2013-07-10 19:51:00,66.4,51.9,29.95,SSW,208,4.9,5.1,60,0.00,,---,0.00,46.32,VWS V14.01,2013-07-11 02:51:00,
2013-07-10 19:56:00,66.2,51.8,29.95,SW,219,6.5,6.5,60,0.00,,---,0.00,51.74,VWS V14.01,2013-07-11 02:56:00,
2013-07-10 20:01:00,65.3,51.2,29.94,SSW,197,9.2,9.2,60,0.00,,---,0.00,43.57,VWS V14.01,2013-07-11 03:01:00,
2013-07-10 20:06:00,64.6,51.1,29.94,SSW,208,6.0,6.0,62,0.00,,---,0.00,35.03,VWS V14.01,2013-07-11 03:06:00,
2013-07-10 20:11:00,64.2,51.1,29.94,SW,230,7.8,7.8,62,0.00,,---,0.00,26.63,VWS V14.01,2013-07-11 03:11:00,
2013-07-10 20:16:00,64.0,51.2,29.94,South,187,6.9,6.9,63,0.00,,---,0.00,25.11,VWS V14.01,2013-07-11 03:16:00,
2013-07-10 20:21:00,63.9,51.0,29.94,SSW,195,4.0,4.0,63,0.00,,---,0.00,37.85,VWS V14.01,2013-07-11 03:21:00,
2013-07-10 20:26:00,63.9,51.1,29.94,SW,217,9.2,9.2,63,0.00,,---,0.00,16.79,VWS V14.01,2013-07-11 03:26:00,
2013-07-10 20:31:00,63.5,51.2,29.94,SW,216,10.7,10.7,64,0.00,,---,0.00,22.21,VWS V14.01,2013-07-11 03:31:00,
2013-07-10 20:36:00,63.5,51.2,29.94,SW,226,7.2,7.2,64,0.00,,---,0.00,9.08,VWS V14.01,2013-07-11 03:36:00,
2013-07-10 20:41:00,63.3,51.1,29.94,SSW,211,8.3,8.3,64,0.00,,---,0.00,6.18,VWS V14.01,2013-07-11 03:41:00,
2013-07-10 20:46:00,63.0,51.1,29.94,SW,222,5.8,5.8,65,0.00,,---,0.00,10.91,VWS V14.01,2013-07-11 03:46:00,
2013-07-10 20:51:00,63.0,51.2,29.94,WSW,244,5.8,5.8,65,0.00,,---,0.00,11.22,VWS V14.01,2013-07-11 03:51:00,
2013-07-10 20:56:00,62.6,50.7,29.94,SW,223,5.6,6.9,65,0.00,,---,0.00,3.05,VWS V14.01,2013-07-11 03:56:00,
2013-07-10 21:01:00,62.1,50.4,29.94,SSW,208,8.7,9.0,66,0.00,,---,0.00,4.58,VWS V14.01,2013-07-11 04:01:00,
2013-07-10 21:06:00,61.7,50.3,29.94,SSW,207,5.6,5.6,66,0.00,,---,0.00,3.36,VWS V14.01,2013-07-11 04:06:00,
2013-07-10 21:11:00,61.3,49.9,29.94,SSW,209,9.8,9.8,66,0.00,,---,0.00,0.00,VWS V14.01,2013-07-11 04:11:00,
2013-07-10 21:16:00,61.2,49.8,29.95,SW,215,9.2,9.2,66,0.00,,---,0.00,0.00,VWS V14.01,2013-07-11 04:16:00,
2013-07-10 21:21:00,61.2,49.8,29.95,SW,215,9.2,9.2,66,0.00,,---,0.00,0.00,VWS V14.01,2013-07-11 04:21:00,
2013-07-10 21:31:00,61.2,49.8,29.95,SW,215,9.2,9.2,66,0.00,,---,0.00,0.00,VWS V14.01,2013-07-11 04:31:00,
2013-07-10 21:40:00,61.2,49.8,29.95,SW,215,9.2,9.2,66,0.00,,---,0.00,0.00,VWS V14.01,2013-07-11 04:40:00,
2013-07-10 21:56:00,61.2,49.8,29.95,SW,215,9.2,9.2,66,0.00,,---,0.00,0.00,VWS V14.01,2013-07-11 04:56:00,
2013-07-10 22:36:00,61.0,48.1,29.96,WNW,301,4.9,4.9,62,0.00,,---,0.00,0.00,VWS V14.01,2013-07-11 05:36:00,
2013-07-10 22:41:00,60.6,47.8,29.96,NW,311,4.7,4.9,63,0.00,,---,0.00,0.00,VWS V14.01,2013-07-11 05:41:00,
2013-07-10 22:46:00,60.3,47.5,29.96,WNW,290,5.1,5.1,63,0.00,,---,0.00,0.92,VWS V14.01,2013-07-11 05:46:00,
2013-07-10 22:51:00,60.1,47.8,29.97,WNW,303,5.8,5.8,64,0.00,,---,0.00,0.00,VWS V14.01,2013-07-11 05:51:00,
2013-07-10 22:56:00,59.7,47.6,29.97,West,269,6.0,6.0,64,0.00,,---,0.00,0.00,VWS V14.01,2013-07-11 05:56:00,
2013-07-10 23:01:00,59.7,47.7,29.97,WNW,292,4.7,4.9,64,0.00,,---,0.00,1.91,VWS V14.01,2013-07-11 06:01:00,
2013-07-10 23:06:00,59.5,47.5,29.97,WNW,286,9.0,9.0,64,0.00,,---,0.00,0.00,VWS V14.01,2013-07-11 06:06:00,
2013-07-10 23:11:00,59.4,47.7,29.97,NW,317,3.8,3.8,65,0.00,,---,0.00,1.91,VWS V14.01,2013-07-11 06:11:00,
2013-07-10 23:16:00,59.4,47.7,29.98,NW,316,3.1,3.1,65,0.00,,---,0.00,1.60,VWS V14.01,2013-07-11 06:16:00,
2013-07-10 23:21:00,59.4,47.7,29.98,WNW,284,6.7,6.7,65,0.00,,---,0.00,0.00,VWS V14.01,2013-07-11 06:21:00,
2013-07-10 23:26:00,59.2,47.5,29.98,West,280,5.8,5.8,65,0.00,,---,0.00,3.36,VWS V14.01,2013-07-11 06:26:00,
2013-07-10 23:31:00,59.0,47.6,29.98,WNW,288,5.1,7.6,66,0.00,,---,0.00,0.00,VWS V14.01,2013-07-11 06:31:00,
2013-07-10 23:36:00,59.0,47.6,29.98,WNW,291,6.9,6.9,66,0.00,,---,0.00,3.43,VWS V14.01,2013-07-11 06:36:00,